Other Surface Observations
Issued by NWS Jacksonville, FL

Home | Current Version | Previous Version | Text Only | Print | Product List | Glossary On
Versions: 1 2 3 4 5 6 7 8 9 10 11 12 13 14 15 16 17 18 19 20 21 22 23 24 25 26 27 28 29 30 31 32 33 34 35 36 37 38 39 40 41 42 43 44 45 46 47 48 49 50
000
SXUS52 KJAX 211910
OSOJAX
OTHER SURFACE OBSERVATIONS
NATIONAL WEATHER SERVICE JACKSONVILLE FL
300 PM EDT TUE OCT 21 2014

FLZ020>025-030>033-035>038-040-212000-
...FLORIDA...

CITY           SKY/WX    TMP DP  RH WIND       PRES   REMARKS
CECIL FIELD    MOSUNNY   81  61  50 CALM      29.92F
HERLONG FIELD  NOT AVBL
FERNANDINA BCH NOT AVBL
LAKE CITY      FAIR      81  61  50 W3        29.93F
JUNIPER SPGS   NOT AVBL
BUNNELL        CLOUDY    79  68  69 E3        29.93F
KEYSTONE HGTS    N/A     82  61  47 NW6       29.93F
$$

GAZ132>136-149>154-162>166-212000-
...GEORGIA...

CITY           SKY/WX    TMP DP  RH WIND       PRES   REMARKS
JESUP          FAIR      82  54  36 NW7       29.92F
HOMERVILLE     FAIR      82  55  39 NW8       29.94F
SWAINSBORO     MOCLDY    82  50  32 NW9       29.92F HAZE
CORDELE        NOT AVBL
$$

PLEASE NOTE:  THESE OBSERVATIONS ARE NOT QUALITY CONTROLLED AND MAY
NOT BE AVAILABLE AT ALL TIMES.
$$



USA.gov is the U.S. government's official web portal to all federal, state and local government web resources and services.